Tampa Macdill AFB, FL

6:18 AM EDT on October 16, 2019 (GMT -0400)
MacDill Air Force Base

Weather History for KMCF - August, 2019

Change the Weather History Date:

Wednesday, August 7, 2019

  Actual Average Record
Temperature  
Mean Temperature 82 °F -  
Max Temperature 86 °F 87 °F 95 °F (2000)
Min Temperature 77 °F 73 °F 69 °F (1998)
Cooling Degree Days 16    
Growing Degree Days 32 (Base 50)    
Moisture  
Dew Point 76 °F    
Average Humidity 85    
Maximum Humidity 94    
Minimum Humidity 73    
Precipitation  
Precipitation 0.96 in - - ()
Sea Level Pressure  
Sea Level Pressure 30.00 in    
Wind  
Wind Speed 5 mph (SSE)    
Max Wind Speed 16 mph    
Max Gust Speed 24 mph    
Visibility 8 miles    
Events Rain , Thunderstorm    
Averages and records for this station are not official NWS values.
T = Trace of Precipitation, MM = Missing Value Source: NWS Daily Summary

Daily Weather History Graph

Daily Weather History Graph

Search for Another Location

Airport or City:

Astronomy

Aug. 07, 2019 Rise Set
Actual Time 6:56 AM EDT 8:15 PM EDT
Civil Twilight 6:31 AM EDT 8:40 PM EDT
Nautical Twilight 6:01 AM EDT 9:09 PM EDT
Astronomical Twilight 5:30 AM EDT 9:40 PM EDT
Moon 1:48 PM EDT (8/7) 12:35 AM EDT (8/7)
Length of Visible Light 14h 09m
Length of Day
13h 19m
Waxing Crescent, 49% of the Moon is Illuminated
Aug 7
Waxing Crescent
Aug 7
First Quarter
Aug 15
Full
Aug 23
Last Quarter
Aug 30
New

Hourly Weather History & Observations

Time (EDT) Temp. Heat Index Dew Point Humidity Pressure Visibility Wind Dir Wind Speed Gust Speed Precip Events Conditions
12:56 AM 81.1 °F 87.4 °F 75.4 °F 83% 30.00 in 10.0 mi SSE 3.5 mph - N/A   Clear
1:56 AM 81.0 °F 87.5 °F 76.3 °F 86% 29.99 in 10.0 mi SSE 5.8 mph - N/A   Clear
2:56 AM 81.9 °F 89.5 °F 76.5 °F 84% 29.98 in 10.0 mi SSE 5.8 mph - N/A   Clear
3:56 AM 82.0 °F 89.7 °F 76.3 °F 83% 29.97 in 10.0 mi SW 5.8 mph - N/A   Partly Cloudy
4:56 AM 81.1 °F 88.4 °F 77.2 °F 88% 29.98 in 10.0 mi South 3.5 mph - N/A   Partly Cloudy
5:56 AM 81.0 °F 88.1 °F 77.4 °F 89% 29.98 in 10.0 mi SSE 5.8 mph - N/A   Mostly Cloudy
6:06 AM 82.4 °F 92.4 °F 78.8 °F 89% 29.98 in 10.0 mi SSE 4.6 mph - N/A   Scattered Clouds
6:11 AM 80.6 °F 87.1 °F 77.0 °F 89% 29.98 in 10.0 mi South 3.5 mph - N/A   Mostly Cloudy
6:16 AM 80.6 °F 88.1 °F 78.8 °F 94% 29.98 in 10.0 mi Calm Calm - N/A   Scattered Clouds
6:26 AM 82.4 °F 90.9 °F 77.0 °F 84% 29.98 in 10.0 mi Calm Calm - N/A   Scattered Clouds
6:56 AM 82.2 °F 89.9 °F 76.1 °F 82% 29.99 in 10.0 mi Calm Calm - N/A   Partly Cloudy
7:54 AM 82.4 °F 90.9 °F 77.0 °F 84% 30.01 in 10.0 mi Calm Calm - N/A Thunderstorm Thunderstorm
7:55 AM 82.4 °F 90.9 °F 77.0 °F 84% 30.01 in 10.0 mi Calm Calm - N/A Rain , Thunderstorm Light Thunderstorms and Rain
7:56 AM 82.9 °F 91.8 °F 76.8 °F 82% 30.01 in 10.0 mi Calm Calm - 0.00 in Rain , Thunderstorm Light Thunderstorms and Rain
8:26 AM 80.6 °F 86.2 °F 75.2 °F 84% 30.02 in 10.0 mi SSE 8.1 mph - N/A Thunderstorm Unknown
8:49 AM 80.6 °F 87.1 °F 77.0 °F 89% 30.02 in 9.0 mi Calm Calm - N/A Thunderstorm Thunderstorm
9:12 AM 78.8 °F - 77.0 °F 94% 30.03 in 10.0 mi Calm Calm - N/A   Partly Cloudy
9:56 AM 81.0 °F 88.4 °F 77.7 °F 90% 30.03 in 10.0 mi Calm Calm - N/A   Scattered Clouds
10:56 AM 82.8 °F 92.2 °F 77.7 °F 85% 30.01 in 10.0 mi North - - N/A   Mostly Cloudy
11:25 AM 86.0 °F 99.3 °F 78.8 °F 79% 30.02 in 10.0 mi East 4.6 mph - N/A   Mostly Cloudy
11:45 AM 82.4 °F 92.4 °F 78.8 °F 89% 30.03 in 10.0 mi East 6.9 mph - N/A   Overcast
11:56 AM 83.1 °F 93.3 °F 78.1 °F 85% 30.03 in 10.0 mi East 8.1 mph - N/A   Overcast
12:01 PM 84.2 °F 94.1 °F 77.0 °F 79% 30.03 in 10.0 mi East 5.8 mph - N/A   Overcast
12:14 PM 82.4 °F 90.9 °F 77.0 °F 84% 30.03 in 10.0 mi NNE 3.5 mph - N/A   Overcast
12:15 PM 82.4 °F 90.9 °F 77.0 °F 84% 30.03 in 8.0 mi North 4.6 mph - N/A Rain Light Rain
12:20 PM 82.4 °F 90.9 °F 77.0 °F 84% 30.03 in 3.0 mi East 9.2 mph - N/A Rain , Thunderstorm Heavy Thunderstorms and Rain
12:22 PM 82.4 °F 90.9 °F 77.0 °F 84% 30.02 in 1.0 mi SSE 16.1 mph 24.2 mph N/A Rain , Thunderstorm Heavy Thunderstorms and Rain
12:28 PM 80.6 °F 86.2 °F 75.2 °F 84% 30.02 in 1.5 mi North 5.8 mph 24.2 mph N/A Rain , Thunderstorm Heavy Thunderstorms and Rain
12:32 PM 80.6 °F 87.1 °F 77.0 °F 89% 30.03 in 2.5 mi NE 6.9 mph - N/A   Overcast
12:33 PM 80.6 °F 87.1 °F 77.0 °F 89% 30.03 in 2.5 mi NE 6.9 mph - N/A Rain , Thunderstorm Heavy Thunderstorms and Rain
12:38 PM 80.6 °F 87.1 °F 77.0 °F 89% 30.03 in 1.5 mi WNW 8.1 mph - N/A Rain , Thunderstorm Light Thunderstorms and Rain
12:43 PM 80.6 °F 87.1 °F 77.0 °F 89% 30.03 in 0.4 mi ESE 5.8 mph - N/A Rain , Thunderstorm Light Thunderstorms and Rain
12:48 PM 80.6 °F 86.2 °F 75.2 °F 84% 30.03 in 0.6 mi South 3.5 mph - N/A Rain , Thunderstorm Light Thunderstorms and Rain
12:53 PM 78.8 °F - 75.2 °F 89% 30.02 in 5.0 mi SSE 10.4 mph - N/A Rain , Thunderstorm Light Thunderstorms and Rain
12:56 PM 79.2 °F - 75.6 °F 89% 30.02 in 8.0 mi SE 8.1 mph - 0.40 in Thunderstorm Thunderstorm
1:02 PM 78.8 °F - 75.2 °F 89% 30.02 in 9.0 mi SE 6.9 mph - N/A Rain , Thunderstorm Light Thunderstorms and Rain
1:06 PM 78.8 °F - 75.2 °F 89% 30.02 in 6.0 mi South 6.9 mph - N/A Rain Heavy Rain
1:11 PM 78.8 °F - 75.2 °F 89% 30.02 in 1.9 mi SE 5.8 mph - N/A Rain Heavy Rain
1:16 PM 78.8 °F - 75.2 °F 89% 30.01 in 5.0 mi SE 5.8 mph - N/A Rain Light Rain
1:20 PM 78.8 °F - 75.2 °F 89% 30.01 in 9.0 mi ESE 5.8 mph - N/A   Mostly Cloudy
1:56 PM 81.7 °F 89.2 °F 76.6 °F 85% 29.99 in 10.0 mi Calm Calm - 0.19 in   Scattered Clouds
2:01 PM 82.4 °F 90.9 °F 77.0 °F 84% 29.99 in 10.0 mi Calm Calm - N/A Rain Light Rain
2:16 PM 84.2 °F 94.1 °F 77.0 °F 79% 29.99 in 10.0 mi Calm Calm - N/A   Mostly Cloudy
2:56 PM 85.5 °F 95.0 °F 75.7 °F 73% 29.98 in 10.0 mi West 9.2 mph - 0.00 in   Overcast
3:00 PM 84.2 °F 94.1 °F 77.0 °F 79% 29.98 in 5.0 mi NW 13.8 mph 18.4 mph N/A   Light Drizzle
3:01 PM 84.2 °F 94.1 °F 77.0 °F 79% 29.98 in 4.0 mi NW 11.5 mph 18.4 mph N/A Thunderstorm Unknown
3:06 PM 82.4 °F 89.5 °F 75.2 °F 79% 29.97 in 1.4 mi WSW 5.8 mph 18.4 mph N/A Rain , Thunderstorm Heavy Thunderstorms and Rain
3:11 PM 80.6 °F 86.2 °F 75.2 °F 84% 29.97 in 1.2 mi South 4.6 mph 18.4 mph N/A Rain , Thunderstorm Thunderstorms and Rain
3:16 PM 80.6 °F 86.2 °F 75.2 °F 84% 29.97 in 1.6 mi Calm Calm - N/A Rain , Thunderstorm Light Thunderstorms and Rain
3:17 PM 80.6 °F 86.2 °F 75.2 °F 84% 29.97 in 1.9 mi Calm Calm - N/A Rain , Thunderstorm Light Rain
3:21 PM 80.6 °F 87.1 °F 77.0 °F 89% 29.97 in 5.0 mi ENE 5.8 mph - N/A Thunderstorm Overcast
3:56 PM 84.4 °F 95.9 °F 78.3 °F 82% 29.98 in 10.0 mi East 4.6 mph - 0.18 in Thunderstorm Overcast
3:57 PM 84.2 °F 96.1 °F 78.8 °F 84% 29.98 in 10.0 mi East 3.5 mph - N/A Thunderstorm Thunderstorm
4:17 PM 80.6 °F 85.4 °F 73.4 °F 79% 29.98 in 5.0 mi NW 11.5 mph 18.4 mph N/A Rain , Thunderstorm Light Thunderstorms and Rain
4:22 PM 78.8 °F - 73.4 °F 83% 29.98 in 2.8 mi NW 6.9 mph - N/A Rain , Thunderstorm Heavy Thunderstorms and Rain
4:27 PM 77.0 °F - 73.4 °F 89% 29.98 in 3.0 mi WNW 8.1 mph - N/A Rain , Thunderstorm Heavy Thunderstorms and Rain
4:44 PM 77.0 °F - 73.4 °F 89% 29.99 in 10.0 mi SW 3.5 mph - N/A Rain , Thunderstorm Light Rain
4:46 PM 77.0 °F - 73.4 °F 89% 29.98 in 10.0 mi SW 5.8 mph - N/A Rain , Thunderstorm Light Thunderstorms and Rain
4:56 PM 77.9 °F - 73.9 °F 88% 29.98 in 10.0 mi SSW 6.9 mph - 0.15 in Rain , Thunderstorm Heavy Thunderstorms and Rain
5:01 PM 78.8 °F - 73.4 °F 83% 29.99 in 9.0 mi SW 3.5 mph - N/A Rain , Thunderstorm Light Rain
5:07 PM 78.8 °F - 73.4 °F 83% 29.98 in 10.0 mi SSW 3.5 mph - N/A Rain , Thunderstorm Light Thunderstorms and Rain
5:21 PM 78.8 °F - 73.4 °F 83% 29.99 in 10.0 mi SE 4.6 mph - N/A Thunderstorm Thunderstorm
5:30 PM 78.8 °F - 73.4 °F 83% 30.00 in 10.0 mi Calm Calm - N/A Thunderstorm Scattered Clouds
5:31 PM 78.8 °F - 73.4 °F 83% 30.00 in 10.0 mi Calm Calm - N/A Rain , Thunderstorm Light Rain
5:45 PM 78.8 °F - 75.2 °F 89% 29.98 in 9.0 mi ENE 3.5 mph - N/A   Mostly Cloudy
5:47 PM 78.8 °F - 75.2 °F 89% 29.98 in 9.0 mi NE 5.8 mph - N/A Thunderstorm Thunderstorm
5:56 PM 79.5 °F - 75.2 °F 87% 29.99 in 10.0 mi East 5.8 mph - 0.04 in Thunderstorm Thunderstorm
6:02 PM 80.6 °F 86.2 °F 75.2 °F 84% 29.99 in 10.0 mi East 11.5 mph - N/A Thunderstorm Partly Cloudy
6:56 PM 78.3 °F - 75.4 °F 91% 29.98 in 10.0 mi SE 10.4 mph - N/A Thunderstorm Clear
7:56 PM 78.8 °F - 73.8 °F 84% 29.99 in 10.0 mi South 6.9 mph - N/A   Clear
8:56 PM 79.3 °F - 75.0 °F 87% 29.99 in 10.0 mi South 5.8 mph - N/A   Clear
9:56 PM 79.5 °F - 74.8 °F 86% 29.99 in 10.0 mi SSW 8.1 mph - N/A   Clear
10:56 PM 80.2 °F 86.0 °F 76.3 °F 88% 30.00 in 10.0 mi SSW 4.6 mph - N/A   Clear
11:56 PM 81.9 °F 90.0 °F 77.2 °F 86% 30.00 in 10.0 mi SSW 6.9 mph - N/A   Clear